Location: Newark
(44.3248°N, 23.7839°E)
Time: 13:31:53
(UTC+00:00)

Oscar 11 - Visible Passes

Search period start: 22 April 2024 00:00
Search period end: 02 May 2024 00:00
Orbit: 605 x 613 km, 97.7° (Epoch: 21 April)

Date Brightness Start Highest point End Pass type
(mag) Time Alt. Az. Time Alt. Az. Time Alt. Az.
22 Apr 9.9 01:04:55 10° ENE 01:06:46 12° E 01:08:36 10° ESE visible
22 Apr 7.1 02:38:50 10° N 02:43:05 63° WNW 02:47:19 10° SSW visible
23 Apr 9.6 01:17:55 10° NE 01:20:49 17° E 01:23:42 10° SE visible
23 Apr 7.5 02:52:51 10° N 02:56:57 45° WNW 03:01:01 10° SW visible
24 Apr 9.2 01:31:19 10° NE 01:34:50 24° E 01:38:18 10° SSE visible
25 Apr 8.6 01:44:53 10° NNE 01:48:48 33° E 01:52:41 10° SSE visible
26 Apr 8.0 01:58:35 10° NNE 02:02:44 47° E 02:06:51 10° S visible
27 Apr 7.4 02:12:21 10° NNE 02:16:38 67° ESE 02:20:53 10° S visible
28 Apr 7.0 02:26:11 10° NNE 02:30:30 86° WNW 02:34:47 10° SSW visible
29 Apr 9.8 01:06:01 10° ENE 01:08:01 13° E 01:10:00 10° ESE visible
29 Apr 7.1 02:40:05 10° N 02:44:19 61° WNW 02:48:31 10° SSW visible
30 Apr 9.6 01:19:02 10° NE 01:22:00 18° E 01:24:57 10° SE visible
01 May 9.1 01:32:23 10° NE 01:35:56 25° E 01:39:28 10° SSE visible
